Weather History for Monroe, WI

Change the Weather History Date:

Sunday, November 4, 2012

  Actual Average Record
Temperature  
Mean Temperature 40 °F -  
Max Temperature 46 °F 0 °F 71 °F (2008)
Min Temperature 32 °F - 24 °F (2002)
Degree Days  
Heating Degree Days 26    
Moisture  
Dew Point 29 °F    
Average Humidity 70    
Maximum Humidity 87    
Minimum Humidity 53    
Precipitation  
Precipitation 0.00 in - - ()
Sea Level Pressure  
Sea Level Pressure 30.20 in    
Wind  
Wind Speed 2 mph (ENE)    
Max Wind Speed 7 mph    
Max Gust Speed -    
Visibility 10 miles    
Events      
Averages and records for this station are not official NWS values.
T = Trace of Precipitation, MM = Missing Value Source: NWS Daily Summary

Daily Weather History Graph

Daily Weather History Graph

Search for Another Location

Airport:

Trip Planner

Search our weather history database for the weather conditions in past years. The results will help you decide how hot, cold, wet, or windy it might be!

Date:

Astronomy

Nov. 04, 2012 Rise Set
Actual Time 6:36 AM CST 4:46 PM CST
Civil Twilight 6:06 AM CST 5:16 PM CST
Nautical Twilight 5:33 AM CST 5:49 PM CST
Astronomical Twilight 5:00 AM CST 6:22 PM CST
Moon 9:23 PM CST (11/4) 11:21 AM CST (11/4)
Length of Visible Light 11h 09m
Length of Day
10h 10m
Waning Gibbous, 72% of the Moon is Illuminated
Nov 4
Waning Gibbous
Nov 6
Last Quarter
Nov 13
New
Nov 20
First Quarter
Nov 28
Full

Hourly Weather History & Observations

Time (CST) Temp. Windchill Dew Point Humidity Pressure Visibility Wind Dir Wind Speed Gust Speed Precip Events Conditions
12:15 AM 35.6 °F 32.8 °F 28.4 °F 75% 30.20 in 10.0 mi ENE 3.5 mph - N/A   Overcast
12:35 AM 35.6 °F 32.8 °F 28.4 °F 75% 30.20 in 10.0 mi ENE 3.5 mph - N/A   Overcast
12:55 AM 35.6 °F - 28.4 °F 75% 30.21 in 10.0 mi Calm Calm - N/A   Overcast
1:15 AM 35.6 °F - 28.4 °F 75% 30.21 in 10.0 mi Calm Calm - N/A   Overcast
1:35 AM 35.6 °F - 28.4 °F 75% 30.21 in 10.0 mi Calm Calm - N/A   Overcast
1:55 AM 35.6 °F - 28.4 °F 75% 30.21 in 10.0 mi Calm Calm - N/A   Overcast
1:15 AM 35.6 °F - 28.4 °F 75% 30.21 in 10.0 mi Calm Calm - N/A   Overcast
1:35 AM 35.6 °F - 28.4 °F 75% 30.22 in 10.0 mi Calm Calm - N/A   Overcast
1:55 AM 35.6 °F - 28.4 °F 75% 30.22 in 10.0 mi Calm Calm - N/A   Overcast
2:15 AM 35.6 °F 32.8 °F 28.4 °F 75% 30.21 in 10.0 mi NE 3.5 mph - N/A   Overcast
2:35 AM 35.6 °F 32.8 °F 28.4 °F 75% 30.22 in 10.0 mi NE 3.5 mph - N/A   Overcast
2:55 AM 35.6 °F - 28.4 °F 75% 30.22 in 10.0 mi Calm Calm - N/A   Overcast
3:15 AM 35.6 °F - 28.4 °F 75% 30.21 in 10.0 mi Calm Calm - N/A   Overcast
3:35 AM 35.6 °F 32.8 °F 28.4 °F 75% 30.21 in 10.0 mi NE 3.5 mph - N/A   Overcast
3:55 AM 33.8 °F 30.8 °F 28.4 °F 81% 30.21 in 10.0 mi NNE 3.5 mph - N/A   Overcast
4:15 AM 33.8 °F 30.8 °F 30.2 °F 87% 30.21 in 10.0 mi NNE 3.5 mph - N/A   Overcast
4:35 AM 33.8 °F - 28.4 °F 81% 30.21 in 10.0 mi Calm Calm - N/A   Overcast
4:55 AM 33.8 °F - 28.4 °F 81% 30.22 in 10.0 mi Calm Calm - N/A   Overcast
5:15 AM 33.8 °F - 28.4 °F 81% 30.22 in 10.0 mi Calm Calm - N/A   Overcast
5:35 AM 33.8 °F 30.8 °F 30.2 °F 87% 30.22 in 10.0 mi NNE 3.5 mph - N/A   Overcast
5:55 AM 33.8 °F 30.8 °F 30.2 °F 87% 30.22 in 10.0 mi NNE 3.5 mph - N/A   Overcast
6:15 AM 33.8 °F - 30.2 °F 87% 30.22 in 10.0 mi Calm Calm - N/A   Overcast
6:35 AM 33.8 °F - 28.4 °F 81% 30.22 in 10.0 mi Calm Calm - N/A   Overcast
6:55 AM 33.8 °F - 28.4 °F 81% 30.23 in 10.0 mi Calm Calm - N/A   Overcast
7:15 AM 33.8 °F - 30.2 °F 87% 30.24 in 10.0 mi Calm Calm - N/A   Overcast
7:35 AM 33.8 °F - 30.2 °F 87% 30.24 in 10.0 mi Calm Calm - N/A   Scattered Clouds
7:55 AM 35.6 °F 32.8 °F 28.4 °F 75% 30.24 in 10.0 mi NNE 3.5 mph - N/A   Scattered Clouds
8:15 AM 35.6 °F - 28.4 °F 75% 30.25 in 10.0 mi Calm Calm - N/A   Mostly Cloudy
8:35 AM 35.6 °F 31.7 °F 30.2 °F 81% 30.24 in 10.0 mi NE 4.6 mph - N/A   Overcast
8:55 AM 37.4 °F 34.9 °F 28.4 °F 70% 30.23 in 10.0 mi ENE 3.5 mph - N/A   Scattered Clouds
9:15 AM 39.2 °F 37.0 °F 28.4 °F 65% 30.23 in 10.0 mi East 3.5 mph - N/A   Clear
9:35 AM 39.2 °F 35.9 °F 28.4 °F 65% 30.23 in 10.0 mi NE 4.6 mph - N/A   Clear
9:55 AM 41.0 °F 39.0 °F 28.4 °F 61% 30.23 in 10.0 mi ENE 3.5 mph - N/A   Clear
10:15 AM 41.0 °F - 28.4 °F 61% 30.23 in 10.0 mi Calm Calm - N/A   Mostly Cloudy
10:35 AM 41.0 °F - 28.4 °F 61% 30.23 in 10.0 mi Calm Calm - N/A   Overcast
10:55 AM 41.0 °F - 28.4 °F 61% 30.22 in 10.0 mi Calm Calm - N/A   Scattered Clouds
11:15 AM 41.0 °F - 30.2 °F 65% 30.22 in 10.0 mi Calm Calm - N/A   Scattered Clouds
11:35 AM 41.0 °F - 30.2 °F 65% 30.21 in 10.0 mi Calm Calm - N/A   Scattered Clouds
11:55 AM 42.8 °F - 30.2 °F 61% 30.21 in 10.0 mi Calm Calm - N/A   Scattered Clouds
12:15 PM 42.8 °F - 30.2 °F 61% 30.20 in 10.0 mi Calm Calm - N/A   Scattered Clouds
12:55 PM 46.4 °F 42.9 °F 30.2 °F 53% 30.19 in 10.0 mi NE 6.9 mph - N/A   Overcast
1:15 PM 44.6 °F - 30.2 °F 57% 30.18 in 10.0 mi Calm Calm - N/A   Mostly Cloudy
1:35 PM 44.6 °F - 30.2 °F 57% 30.18 in 10.0 mi Calm Calm - N/A   Scattered Clouds
1:55 PM 44.6 °F - 30.2 °F 57% 30.17 in 10.0 mi Calm Calm - N/A   Mostly Cloudy
2:15 PM 44.6 °F 43.1 °F 30.2 °F 57% 30.17 in 10.0 mi ENE 3.5 mph - N/A   Mostly Cloudy
2:35 PM 44.6 °F - 30.2 °F 57% 30.17 in 10.0 mi Calm Calm - N/A   Overcast
2:55 PM 44.6 °F - 30.2 °F 57% 30.17 in 10.0 mi Calm Calm - N/A   Overcast
3:15 PM 44.6 °F - 30.2 °F 57% 30.16 in 10.0 mi Calm Calm - N/A   Overcast
3:35 PM 44.6 °F 42.2 °F 30.2 °F 57% 30.16 in 10.0 mi NE 4.6 mph - N/A   Overcast
3:55 PM 44.6 °F 42.2 °F 30.2 °F 57% 30.16 in 10.0 mi NNE 4.6 mph - N/A   Overcast
4:15 PM 42.8 °F - 30.2 °F 61% 30.16 in 10.0 mi Calm Calm - N/A   Overcast
4:35 PM 42.8 °F 41.1 °F 28.4 °F 57% 30.16 in 10.0 mi NE 3.5 mph - N/A   Mostly Cloudy
4:55 PM 42.8 °F - 28.4 °F 57% 30.16 in 10.0 mi Calm Calm - N/A   Scattered Clouds
5:15 PM 42.8 °F - 28.4 °F 57% 30.16 in 10.0 mi Calm Calm - N/A   Clear
5:35 PM 41.0 °F - 28.4 °F 61% 30.16 in 10.0 mi Calm Calm - N/A   Clear
5:55 PM 41.0 °F - 28.4 °F 61% 30.17 in 10.0 mi Calm Calm - N/A   Clear
6:15 PM 41.0 °F 39.0 °F 28.4 °F 61% 30.17 in 10.0 mi East 3.5 mph - N/A   Clear
6:35 PM 41.0 °F - 28.4 °F 61% 30.17 in 10.0 mi Calm Calm - N/A   Clear
6:55 PM 39.2 °F 35.9 °F 28.4 °F 65% 30.18 in 10.0 mi East 4.6 mph - N/A   Clear
7:15 PM 37.4 °F 33.8 °F 28.4 °F 70% 30.17 in 10.0 mi East 4.6 mph - N/A   Clear
7:35 PM 37.4 °F 33.8 °F 28.4 °F 70% 30.17 in 10.0 mi East 4.6 mph - N/A   Clear
7:55 PM 37.4 °F 34.9 °F 28.4 °F 70% 30.18 in 10.0 mi East 3.5 mph - N/A   Clear
8:15 PM 37.4 °F 33.8 °F 28.4 °F 70% 30.18 in 10.0 mi East 4.6 mph - N/A   Scattered Clouds
8:35 PM 35.6 °F 31.7 °F 28.4 °F 75% 30.18 in 10.0 mi East 4.6 mph - N/A   Scattered Clouds
8:55 PM 35.6 °F 30.7 °F 28.4 °F 75% 30.17 in 10.0 mi ENE 5.8 mph - N/A   Clear
9:15 PM 35.6 °F 31.7 °F 28.4 °F 75% 30.17 in 10.0 mi East 4.6 mph - N/A   Clear
9:35 PM 35.6 °F 30.7 °F 26.6 °F 70% 30.18 in 10.0 mi East 5.8 mph - N/A   Clear
9:55 PM 35.6 °F 31.7 °F 26.6 °F 70% 30.18 in 10.0 mi ENE 4.6 mph - N/A   Clear
10:15 PM 33.8 °F 29.6 °F 26.6 °F 75% 30.18 in 10.0 mi ENE 4.6 mph - N/A   Clear
10:35 PM 33.8 °F 29.6 °F 26.6 °F 75% 30.18 in 10.0 mi ENE 4.6 mph - N/A   Clear
10:55 PM 32.0 °F 28.7 °F 26.6 °F 80% 30.18 in 10.0 mi ENE 3.5 mph - N/A   Clear